Location: Hale Hill Observatory
(39.3806°N, 86.8431°W)
Time: 04:27:19
(UTC-05:00)

X-37B - Visible Passes

Search period start: 01 December 2020 00:00
Search period end: 11 December 2020 00:00
Orbit: 384 x 390 km, 45.0° (Epoch: 26 November)

Date Brightness Start Highest point End Pass type
(mag) Time Alt. Az. Time Alt. Az. Time Alt. Az.
01 Dec 1.6 18:34:16 10° W 18:37:13 35° NNW 18:38:33 24° NE visible
02 Dec 2.3 19:12:47 10° WNW 19:14:52 25° NNW 19:14:52 25° NNW visible
03 Dec 1.8 18:14:00 10° WNW 18:16:50 29° N 18:18:55 15° NE visible
03 Dec 3.8 19:50:58 10° WNW 19:51:11 11° NW 19:51:11 11° NW visible
04 Dec 1.7 18:52:22 10° WNW 18:55:13 29° N 18:55:17 29° N visible
05 Dec 1.9 17:53:41 10° WNW 17:56:28 27° N 17:59:16 10° ENE visible
05 Dec 2.8 19:30:25 10° WNW 19:31:42 21° NW 19:31:42 21° NW visible
06 Dec 1.4 18:31:52 10° WNW 18:34:50 35° NNE 18:35:55 26° NE visible
07 Dec 0.9 19:09:51 10° WNW 19:12:32 59° NW 19:12:32 59° NW visible
08 Dec 0.9 18:11:18 10° WNW 18:14:24 48° NNE 18:17:01 13° E visible
08 Dec 3.4 19:48:06 10° W 19:49:20 19° W 19:49:20 19° W visible
09 Dec 1.1 18:49:21 10° WNW 18:52:28 58° SSW 18:54:01 26° SE visible
10 Dec 0.5 17:50:45 10° WNW 17:53:55 78° NNE 17:57:05 10° ESE visible
10 Dec 3.3 19:28:08 10° W 19:30:14 16° SW 19:31:19 14° SSW visible
